owner,sensor,date,latitude,longitude,air_pressure(mBar),qcFlag 
WAVCIS,ioos:station:WAVCIS:CSI06:1,2011-03-01T00:00:00Z,28.8667,-90.4833,1013.54,11111222 
WAVCIS,ioos:station:WAVCIS:CSI06:1,2011-03-01T01:00:00Z,28.8667,-90.4833,1014.32,11111222 
WAVCIS,ioos:station:WAVCIS:CSI06:1,2011-03-01T02:00:00Z,28.8667,-90.4833,1015.1,11111222 
WAVCIS,ioos:station:WAVCIS:CSI06:1,2011-03-01T03:00:00Z,28.8667,-90.4833,1015.68,11111222 
WAVCIS,ioos:station:WAVCIS:CSI06:1,2011-03-01T04:00:00Z,28.8667,-90.4833,1016.35,11111222 
WAVCIS,ioos:station:WAVCIS:CSI06:1,2011-03-01T05:00:00Z,28.8667,-90.4833,1016.62,11111222 
WAVCIS,ioos:station:WAVCIS:CSI06:1,2011-03-01T06:00:00Z,28.8667,-90.4833,1016.87,11111222 
WAVCIS,ioos:station:WAVCIS:CSI06:1,2011-03-01T07:00:00Z,28.8667,-90.4833,1017.03,11111222 
WAVCIS,ioos:station:WAVCIS:CSI06:1,2011-03-01T08:00:00Z,28.8667,-90.4833,1017.11,11111222 
WAVCIS,ioos:station:WAVCIS:CSI06:1,2011-03-01T09:00:00Z,28.8667,-90.4833,1017.35,11111222 
WAVCIS,ioos:station:WAVCIS:CSI06:1,2011-03-01T10:00:00Z,28.8667,-90.4833,1017.86,11111222 
WAVCIS,ioos:station:WAVCIS:CSI06:1,2011-03-01T11:00:00Z,28.8667,-90.4833,1018.39,11111222 
WAVCIS,ioos:station:WAVCIS:CSI06:1,2011-03-01T12:00:00Z,28.8667,-90.4833,1019.32,11111222 
WAVCIS,ioos:station:WAVCIS:CSI06:1,2011-03-01T13:00:00Z,28.8667,-90.4833,1020.09,11111222 
WAVCIS,ioos:station:WAVCIS:CSI06:1,2011-03-01T14:00:00Z,28.8667,-90.4833,1020.88,11111222 
WAVCIS,ioos:station:WAVCIS:CSI06:1,2011-03-01T15:00:00Z,28.8667,-90.4833,1021.53,11111222 
WAVCIS,ioos:station:WAVCIS:CSI06:1,2011-03-01T16:00:00Z,28.8667,-90.4833,1022.07,11111222 
WAVCIS,ioos:station:WAVCIS:CSI06:1,2011-03-01T17:00:00Z,28.8667,-90.4833,1022.15,11111222 
WAVCIS,ioos:station:WAVCIS:CSI06:1,2011-03-01T18:00:00Z,28.8667,-90.4833,1021.9,11111222 
WAVCIS,ioos:station:WAVCIS:CSI06:1,2011-03-01T19:00:00Z,28.8667,-90.4833,1021.16,11111222 
WAVCIS,ioos:station:WAVCIS:CSI06:1,2011-03-01T20:00:00Z,28.8667,-90.4833,1020.42,11111222 
WAVCIS,ioos:station:WAVCIS:CSI06:1,2011-03-01T21:00:00Z,28.8667,-90.4833,1020.03,11111222 
WAVCIS,ioos:station:WAVCIS:CSI06:1,2011-03-01T22:00:00Z,28.8667,-90.4833,1019.81,11111222 
WAVCIS,ioos:station:WAVCIS:CSI06:1,2011-03-01T23:00:00Z,28.8667,-90.4833,1019.82,11111222 
WAVCIS,ioos:station:WAVCIS:CSI06:1,2011-03-02T00:00:00Z,28.8667,-90.4833,1020.11,11111222 
WAVCIS,ioos:station:WAVCIS:CSI06:1,2011-03-02T01:00:00Z,28.8667,-90.4833,1020.33,11111222 
WAVCIS,ioos:station:WAVCIS:CSI06:1,2011-03-02T02:00:00Z,28.8667,-90.4833,1020.68,11111222 
WAVCIS,ioos:station:WAVCIS:CSI06:1,2011-03-02T03:00:00Z,28.8667,-90.4833,1020.96,11111222 
WAVCIS,ioos:station:WAVCIS:CSI06:1,2011-03-02T04:00:00Z,28.8667,-90.4833,1021.05,11111222 
WAVCIS,ioos:station:WAVCIS:CSI06:1,2011-03-02T05:00:00Z,28.8667,-90.4833,1020.65,11111222 
WAVCIS,ioos:station:WAVCIS:CSI06:1,2011-03-02T06:00:00Z,28.8667,-90.4833,1020.09,11111222 
WAVCIS,ioos:station:WAVCIS:CSI06:1,2011-03-02T07:00:00Z,28.8667,-90.4833,1019.68,11111222 
WAVCIS,ioos:station:WAVCIS:CSI06:1,2011-03-02T08:00:00Z,28.8667,-90.4833,1019.42,11111222 
WAVCIS,ioos:station:WAVCIS:CSI06:1,2011-03-02T09:00:00Z,28.8667,-90.4833,1019.55,11111222 
WAVCIS,ioos:station:WAVCIS:CSI06:1,2011-03-02T10:00:00Z,28.8667,-90.4833,1019.26,11111222 
WAVCIS,ioos:station:WAVCIS:CSI06:1,2011-03-02T11:00:00Z,28.8667,-90.4833,1019.39,11111222 
WAVCIS,ioos:station:WAVCIS:CSI06:1,2011-03-02T12:00:00Z,28.8667,-90.4833,1019.68,11111222 
WAVCIS,ioos:station:WAVCIS:CSI06:1,2011-03-02T13:00:00Z,28.8667,-90.4833,1020.27,11111222 
WAVCIS,ioos:station:WAVCIS:CSI06:1,2011-03-02T14:00:00Z,28.8667,-90.4833,1020.65,11111222 
WAVCIS,ioos:station:WAVCIS:CSI06:1,2011-03-02T15:00:00Z,28.8667,-90.4833,1021.05,11111222 
WAVCIS,ioos:station:WAVCIS:CSI06:1,2011-03-02T16:00:00Z,28.8667,-90.4833,1021.2,11111222 
WAVCIS,ioos:station:WAVCIS:CSI06:1,2011-03-02T17:00:00Z,28.8667,-90.4833,1021.19,11111222 
WAVCIS,ioos:station:WAVCIS:CSI06:1,2011-03-02T18:00:00Z,28.8667,-90.4833,1020.85,11111222 
WAVCIS,ioos:station:WAVCIS:CSI06:1,2011-03-02T19:00:00Z,28.8667,-90.4833,1019.66,11111222 
WAVCIS,ioos:station:WAVCIS:CSI06:1,2011-03-02T20:00:00Z,28.8667,-90.4833,1019.17,11111222 
WAVCIS,ioos:station:WAVCIS:CSI06:1,2011-03-02T21:00:00Z,28.8667,-90.4833,1018.59,11111222 
WAVCIS,ioos:station:WAVCIS:CSI06:1,2011-03-02T22:00:00Z,28.8667,-90.4833,1018.37,11111222 
WAVCIS,ioos:station:WAVCIS:CSI06:1,2011-03-02T23:00:00Z,28.8667,-90.4833,1018.35,11111222 
WAVCIS,ioos:station:WAVCIS:CSI06:1,2011-03-03T00:00:00Z,28.8667,-90.4833,1018.3,11111222 
WAVCIS,ioos:station:WAVCIS:CSI06:1,2011-03-03T01:00:00Z,28.8667,-90.4833,1018.04,11111222 
WAVCIS,ioos:station:WAVCIS:CSI06:1,2011-03-03T02:00:00Z,28.8667,-90.4833,1018.75,11111222 
WAVCIS,ioos:station:WAVCIS:CSI06:1,2011-03-03T03:00:00Z,28.8667,-90.4833,1019.03,11111222 
WAVCIS,ioos:station:WAVCIS:CSI06:1,2011-03-03T04:00:00Z,28.8667,-90.4833,1019.49,11111222 
WAVCIS,ioos:station:WAVCIS:CSI06:1,2011-03-03T05:00:00Z,28.8667,-90.4833,1019.15,11111222 
WAVCIS,ioos:station:WAVCIS:CSI06:1,2011-03-03T06:00:00Z,28.8667,-90.4833,1018.65,11111222 
WAVCIS,ioos:station:WAVCIS:CSI06:1,2011-03-03T07:00:00Z,28.8667,-90.4833,1018.4,11111222 
WAVCIS,ioos:station:WAVCIS:CSI06:1,2011-03-03T08:00:00Z,28.8667,-90.4833,1017.88,11111222 
WAVCIS,ioos:station:WAVCIS:CSI06:1,2011-03-03T09:00:00Z,28.8667,-90.4833,1017.44,11111222 
WAVCIS,ioos:station:WAVCIS:CSI06:1,2011-03-03T10:00:00Z,28.8667,-90.4833,1017.33,11111222 
WAVCIS,ioos:station:WAVCIS:CSI06:1,2011-03-03T11:00:00Z,28.8667,-90.4833,1017.29,11111222 
WAVCIS,ioos:station:WAVCIS:CSI06:1,2011-03-03T12:00:00Z,28.8667,-90.4833,1017.44,11111222 
WAVCIS,ioos:station:WAVCIS:CSI06:1,2011-03-03T13:00:00Z,28.8667,-90.4833,1018.1,11111222 
WAVCIS,ioos:station:WAVCIS:CSI06:1,2011-03-03T14:00:00Z,28.8667,-90.4833,1018.58,11111222 
WAVCIS,ioos:station:WAVCIS:CSI06:1,2011-03-03T15:00:00Z,28.8667,-90.4833,1018.88,11111222 
WAVCIS,ioos:station:WAVCIS:CSI06:1,2011-03-03T16:00:00Z,28.8667,-90.4833,1019.17,11111222 
WAVCIS,ioos:station:WAVCIS:CSI06:1,2011-03-03T17:00:00Z,28.8667,-90.4833,1019.11,11111222 
WAVCIS,ioos:station:WAVCIS:CSI06:1,2011-03-03T18:00:00Z,28.8667,-90.4833,1018.42,11111222 
WAVCIS,ioos:station:WAVCIS:CSI06:1,2011-03-03T19:00:00Z,28.8667,-90.4833,1017.48,11111222 
WAVCIS,ioos:station:WAVCIS:CSI06:1,2011-03-03T20:00:00Z,28.8667,-90.4833,1016.72,11111222 
WAVCIS,ioos:station:WAVCIS:CSI06:1,2011-03-03T21:00:00Z,28.8667,-90.4833,1016.18,11111222 
WAVCIS,ioos:station:WAVCIS:CSI06:1,2011-03-03T22:00:00Z,28.8667,-90.4833,1015.9,11111222 
WAVCIS,ioos:station:WAVCIS:CSI06:1,2011-03-03T23:00:00Z,28.8667,-90.4833,1016.04,11111222 
WAVCIS,ioos:station:WAVCIS:CSI06:1,2011-03-04T00:00:00Z,28.8667,-90.4833,1015.95,11111222 
WAVCIS,ioos:station:WAVCIS:CSI06:1,2011-03-04T01:00:00Z,28.8667,-90.4833,1016.32,11111222 
WAVCIS,ioos:station:WAVCIS:CSI06:1,2011-03-04T02:00:00Z,28.8667,-90.4833,1016.85,11111222 
WAVCIS,ioos:station:WAVCIS:CSI06:1,2011-03-04T03:00:00Z,28.8667,-90.4833,1016.79,11111222 
WAVCIS,ioos:station:WAVCIS:CSI06:1,2011-03-04T04:00:00Z,28.8667,-90.4833,1016.57,11111222 
WAVCIS,ioos:station:WAVCIS:CSI06:1,2011-03-04T05:00:00Z,28.8667,-90.4833,1016.79,11111222 
WAVCIS,ioos:station:WAVCIS:CSI06:1,2011-03-04T06:00:00Z,28.8667,-90.4833,1016.6,11111222 
WAVCIS,ioos:station:WAVCIS:CSI06:1,2011-03-04T07:00:00Z,28.8667,-90.4833,1016.41,11111222 
WAVCIS,ioos:station:WAVCIS:CSI06:1,2011-03-04T08:00:00Z,28.8667,-90.4833,1015.64,11111222 
WAVCIS,ioos:station:WAVCIS:CSI06:1,2011-03-04T09:00:00Z,28.8667,-90.4833,1014.75,11111222 
WAVCIS,ioos:station:WAVCIS:CSI06:1,2011-03-04T10:00:00Z,28.8667,-90.4833,1014.36,11111222 
WAVCIS,ioos:station:WAVCIS:CSI06:1,2011-03-04T11:00:00Z,28.8667,-90.4833,1014.3,11111222 
WAVCIS,ioos:station:WAVCIS:CSI06:1,2011-03-04T12:00:00Z,28.8667,-90.4833,1014.58,11111222 
WAVCIS,ioos:station:WAVCIS:CSI06:1,2011-03-04T13:00:00Z,28.8667,-90.4833,1014.96,11111222 
WAVCIS,ioos:station:WAVCIS:CSI06:1,2011-03-04T14:00:00Z,28.8667,-90.4833,1015.65,11111222 
WAVCIS,ioos:station:WAVCIS:CSI06:1,2011-03-04T15:00:00Z,28.8667,-90.4833,1016.35,11111222 
WAVCIS,ioos:station:WAVCIS:CSI06:1,2011-03-04T16:00:00Z,28.8667,-90.4833,1016.87,11111222 
WAVCIS,ioos:station:WAVCIS:CSI06:1,2011-03-04T17:00:00Z,28.8667,-90.4833,1017.0,11111222 
WAVCIS,ioos:station:WAVCIS:CSI06:1,2011-03-04T18:00:00Z,28.8667,-90.4833,1016.33,11111222 
WAVCIS,ioos:station:WAVCIS:CSI06:1,2011-03-04T19:00:00Z,28.8667,-90.4833,1015.74,11111222 
WAVCIS,ioos:station:WAVCIS:CSI06:1,2011-03-04T20:00:00Z,28.8667,-90.4833,1015.14,11111222 
WAVCIS,ioos:station:WAVCIS:CSI06:1,2011-03-04T21:00:00Z,28.8667,-90.4833,1014.83,11111222 
WAVCIS,ioos:station:WAVCIS:CSI06:1,2011-03-04T22:00:00Z,28.8667,-90.4833,1014.49,11111222 
WAVCIS,ioos:station:WAVCIS:CSI06:1,2011-03-04T23:00:00Z,28.8667,-90.4833,1014.22,11111222 
WAVCIS,ioos:station:WAVCIS:CSI06:1,2011-03-05T00:00:00Z,28.8667,-90.4833,1014.39,11111222 
WAVCIS,ioos:station:WAVCIS:CSI06:1,2011-03-05T01:00:00Z,28.8667,-90.4833,1014.02,11111222 
WAVCIS,ioos:station:WAVCIS:CSI06:1,2011-03-05T02:00:00Z,28.8667,-90.4833,1014.31,11111222 
WAVCIS,ioos:station:WAVCIS:CSI06:1,2011-03-05T03:00:00Z,28.8667,-90.4833,1014.33,11111222 
WAVCIS,ioos:station:WAVCIS:CSI06:1,2011-03-05T04:00:00Z,28.8667,-90.4833,1015.05,11111222 
WAVCIS,ioos:station:WAVCIS:CSI06:1,2011-03-05T05:00:00Z,28.8667,-90.4833,1014.75,11111222 
WAVCIS,ioos:station:WAVCIS:CSI06:1,2011-03-05T06:00:00Z,28.8667,-90.4833,1014.79,11111222 
WAVCIS,ioos:station:WAVCIS:CSI06:1,2011-03-05T07:00:00Z,28.8667,-90.4833,1014.67,11111222 
WAVCIS,ioos:station:WAVCIS:CSI06:1,2011-03-05T08:00:00Z,28.8667,-90.4833,1014.68,11111222 
WAVCIS,ioos:station:WAVCIS:CSI06:1,2011-03-05T09:00:00Z,28.8667,-90.4833,1014.46,11111222 
WAVCIS,ioos:station:WAVCIS:CSI06:1,2011-03-05T10:00:00Z,28.8667,-90.4833,1014.17,11111222 
WAVCIS,ioos:station:WAVCIS:CSI06:1,2011-03-05T11:00:00Z,28.8667,-90.4833,1014.18,11111222 
WAVCIS,ioos:station:WAVCIS:CSI06:1,2011-03-05T12:00:00Z,28.8667,-90.4833,1014.26,11111222 
WAVCIS,ioos:station:WAVCIS:CSI06:1,2011-03-05T13:00:00Z,28.8667,-90.4833,1014.23,11111222 
WAVCIS,ioos:station:WAVCIS:CSI06:1,2011-03-05T14:00:00Z,28.8667,-90.4833,1014.57,11111222 
WAVCIS,ioos:station:WAVCIS:CSI06:1,2011-03-05T15:00:00Z,28.8667,-90.4833,1014.66,11111222 
WAVCIS,ioos:station:WAVCIS:CSI06:1,2011-03-05T16:00:00Z,28.8667,-90.4833,1014.72,11111222 
WAVCIS,ioos:station:WAVCIS:CSI06:1,2011-03-05T17:00:00Z,28.8667,-90.4833,1014.38,11111222 
WAVCIS,ioos:station:WAVCIS:CSI06:1,2011-03-05T18:00:00Z,28.8667,-90.4833,1012.74,11111222 
WAVCIS,ioos:station:WAVCIS:CSI06:1,2011-03-05T19:00:00Z,28.8667,-90.4833,1012.15,11111222 
WAVCIS,ioos:station:WAVCIS:CSI06:1,2011-03-05T20:00:00Z,28.8667,-90.4833,1012.26,11111222 
WAVCIS,ioos:station:WAVCIS:CSI06:1,2011-03-05T21:00:00Z,28.8667,-90.4833,1012.0,11111222 
WAVCIS,ioos:station:WAVCIS:CSI06:1,2011-03-05T22:00:00Z,28.8667,-90.4833,1011.5,11111222 
WAVCIS,ioos:station:WAVCIS:CSI06:1,2011-03-05T23:00:00Z,28.8667,-90.4833,1013.25,11111222 
WAVCIS,ioos:station:WAVCIS:CSI06:1,2011-03-06T00:00:00Z,28.8667,-90.4833,1011.83,11111222 
WAVCIS,ioos:station:WAVCIS:CSI06:1,2011-03-06T01:00:00Z,28.8667,-90.4833,1012.81,11111222 
WAVCIS,ioos:station:WAVCIS:CSI06:1,2011-03-06T02:00:00Z,28.8667,-90.4833,1013.06,11111222 
WAVCIS,ioos:station:WAVCIS:CSI06:1,2011-03-06T03:00:00Z,28.8667,-90.4833,1014.55,11111222 
WAVCIS,ioos:station:WAVCIS:CSI06:1,2011-03-06T04:00:00Z,28.8667,-90.4833,1015.46,11111222 
WAVCIS,ioos:station:WAVCIS:CSI06:1,2011-03-06T05:00:00Z,28.8667,-90.4833,1015.72,11111222 
WAVCIS,ioos:station:WAVCIS:CSI06:1,2011-03-06T06:00:00Z,28.8667,-90.4833,1016.37,11111222 
WAVCIS,ioos:station:WAVCIS:CSI06:1,2011-03-06T07:00:00Z,28.8667,-90.4833,1016.8,11111222 
WAVCIS,ioos:station:WAVCIS:CSI06:1,2011-03-06T08:00:00Z,28.8667,-90.4833,1016.61,11111222 
WAVCIS,ioos:station:WAVCIS:CSI06:1,2011-03-06T09:00:00Z,28.8667,-90.4833,1016.94,11111222 
WAVCIS,ioos:station:WAVCIS:CSI06:1,2011-03-06T10:00:00Z,28.8667,-90.4833,1017.4,11111222 
WAVCIS,ioos:station:WAVCIS:CSI06:1,2011-03-06T11:00:00Z,28.8667,-90.4833,1017.95,11111222 
WAVCIS,ioos:station:WAVCIS:CSI06:1,2011-03-06T12:00:00Z,28.8667,-90.4833,1019.04,11111222 
WAVCIS,ioos:station:WAVCIS:CSI06:1,2011-03-06T13:00:00Z,28.8667,-90.4833,1019.56,11111222 
WAVCIS,ioos:station:WAVCIS:CSI06:1,2011-03-06T14:00:00Z,28.8667,-90.4833,1020.25,11111222 
WAVCIS,ioos:station:WAVCIS:CSI06:1,2011-03-06T15:00:00Z,28.8667,-90.4833,1020.39,11111222 
WAVCIS,ioos:station:WAVCIS:CSI06:1,2011-03-06T16:00:00Z,28.8667,-90.4833,1020.89,11111222 
WAVCIS,ioos:station:WAVCIS:CSI06:1,2011-03-06T17:00:00Z,28.8667,-90.4833,1021.11,11111222 
WAVCIS,ioos:station:WAVCIS:CSI06:1,2011-03-06T18:00:00Z,28.8667,-90.4833,1020.32,11111222 
WAVCIS,ioos:station:WAVCIS:CSI06:1,2011-03-06T19:00:00Z,28.8667,-90.4833,1020.53,11111222 
WAVCIS,ioos:station:WAVCIS:CSI06:1,2011-03-06T20:00:00Z,28.8667,-90.4833,1019.57,11111222 
WAVCIS,ioos:station:WAVCIS:CSI06:1,2011-03-06T21:00:00Z,28.8667,-90.4833,1019.17,11111222 
WAVCIS,ioos:station:WAVCIS:CSI06:1,2011-03-06T22:00:00Z,28.8667,-90.4833,1018.49,11111222 
WAVCIS,ioos:station:WAVCIS:CSI06:1,2011-03-06T23:00:00Z,28.8667,-90.4833,1018.02,11111222 
WAVCIS,ioos:station:WAVCIS:CSI06:1,2011-03-07T00:00:00Z,28.8667,-90.4833,1018.23,11111222 
WAVCIS,ioos:station:WAVCIS:CSI06:1,2011-03-07T01:00:00Z,28.8667,-90.4833,1017.94,11111222 
WAVCIS,ioos:station:WAVCIS:CSI06:1,2011-03-07T02:00:00Z,28.8667,-90.4833,1018.21,11111222 
WAVCIS,ioos:station:WAVCIS:CSI06:1,2011-03-07T03:00:00Z,28.8667,-90.4833,1018.67,11111222 
WAVCIS,ioos:station:WAVCIS:CSI06:1,2011-03-07T04:00:00Z,28.8667,-90.4833,1018.74,11111222 
WAVCIS,ioos:station:WAVCIS:CSI06:1,2011-03-07T05:00:00Z,28.8667,-90.4833,1018.56,11111222 
WAVCIS,ioos:station:WAVCIS:CSI06:1,2011-03-07T06:00:00Z,28.8667,-90.4833,1018.47,11111222 
WAVCIS,ioos:station:WAVCIS:CSI06:1,2011-03-07T07:00:00Z,28.8667,-90.4833,1018.19,11111222 
WAVCIS,ioos:station:WAVCIS:CSI06:1,2011-03-07T08:00:00Z,28.8667,-90.4833,1016.91,11111222 
WAVCIS,ioos:station:WAVCIS:CSI06:1,2011-03-07T09:00:00Z,28.8667,-90.4833,1016.31,11111222 
WAVCIS,ioos:station:WAVCIS:CSI06:1,2011-03-07T10:00:00Z,28.8667,-90.4833,1016.73,11111222 
WAVCIS,ioos:station:WAVCIS:CSI06:1,2011-03-07T11:00:00Z,28.8667,-90.4833,1016.88,11111222 
WAVCIS,ioos:station:WAVCIS:CSI06:1,2011-03-07T12:00:00Z,28.8667,-90.4833,1016.94,11111222 
WAVCIS,ioos:station:WAVCIS:CSI06:1,2011-03-07T13:00:00Z,28.8667,-90.4833,1017.31,11111222 
WAVCIS,ioos:station:WAVCIS:CSI06:1,2011-03-07T14:00:00Z,28.8667,-90.4833,1017.99,11111222 
WAVCIS,ioos:station:WAVCIS:CSI06:1,2011-03-07T15:00:00Z,28.8667,-90.4833,1017.82,11111222 
WAVCIS,ioos:station:WAVCIS:CSI06:1,2011-03-07T16:00:00Z,28.8667,-90.4833,1018.13,11111222 
WAVCIS,ioos:station:WAVCIS:CSI06:1,2011-03-07T17:00:00Z,28.8667,-90.4833,1018.0,11111222 
WAVCIS,ioos:station:WAVCIS:CSI06:1,2011-03-07T18:00:00Z,28.8667,-90.4833,1017.2,11111222 
WAVCIS,ioos:station:WAVCIS:CSI06:1,2011-03-07T19:00:00Z,28.8667,-90.4833,1016.54,11111222 
WAVCIS,ioos:station:WAVCIS:CSI06:1,2011-03-07T20:00:00Z,28.8667,-90.4833,1015.47,11111222 
WAVCIS,ioos:station:WAVCIS:CSI06:1,2011-03-07T21:00:00Z,28.8667,-90.4833,1015.24,11111222 
WAVCIS,ioos:station:WAVCIS:CSI06:1,2011-03-07T22:00:00Z,28.8667,-90.4833,1014.6,11111222 
WAVCIS,ioos:station:WAVCIS:CSI06:1,2011-03-07T23:00:00Z,28.8667,-90.4833,1014.2,11111222 
WAVCIS,ioos:station:WAVCIS:CSI06:1,2011-03-08T00:00:00Z,28.8667,-90.4833,1014.34,11111222 
WAVCIS,ioos:station:WAVCIS:CSI06:1,2011-03-08T01:00:00Z,28.8667,-90.4833,1014.49,11111222 
WAVCIS,ioos:station:WAVCIS:CSI06:1,2011-03-08T02:00:00Z,28.8667,-90.4833,1014.5,11111222 
WAVCIS,ioos:station:WAVCIS:CSI06:1,2011-03-08T03:00:00Z,28.8667,-90.4833,1014.57,11111222 
WAVCIS,ioos:station:WAVCIS:CSI06:1,2011-03-08T04:00:00Z,28.8667,-90.4833,1014.38,11111222 
WAVCIS,ioos:station:WAVCIS:CSI06:1,2011-03-08T05:00:00Z,28.8667,-90.4833,1014.22,11111222 
WAVCIS,ioos:station:WAVCIS:CSI06:1,2011-03-08T06:00:00Z,28.8667,-90.4833,1014.0,11111222 
WAVCIS,ioos:station:WAVCIS:CSI06:1,2011-03-08T07:00:00Z,28.8667,-90.4833,1013.46,11111222 
WAVCIS,ioos:station:WAVCIS:CSI06:1,2011-03-08T08:00:00Z,28.8667,-90.4833,1013.13,11111222 
WAVCIS,ioos:station:WAVCIS:CSI06:1,2011-03-08T09:00:00Z,28.8667,-90.4833,1012.55,11111222 
WAVCIS,ioos:station:WAVCIS:CSI06:1,2011-03-08T10:00:00Z,28.8667,-90.4833,1012.07,11111222 
WAVCIS,ioos:station:WAVCIS:CSI06:1,2011-03-08T11:00:00Z,28.8667,-90.4833,1012.18,11111222 
WAVCIS,ioos:station:WAVCIS:CSI06:1,2011-03-08T12:00:00Z,28.8667,-90.4833,1012.56,11111222 
WAVCIS,ioos:station:WAVCIS:CSI06:1,2011-03-08T13:00:00Z,28.8667,-90.4833,1012.73,11111222 
WAVCIS,ioos:station:WAVCIS:CSI06:1,2011-03-08T14:00:00Z,28.8667,-90.4833,1013.43,11111222 
WAVCIS,ioos:station:WAVCIS:CSI06:1,2011-03-08T15:00:00Z,28.8667,-90.4833,1014.07,11111222 
WAVCIS,ioos:station:WAVCIS:CSI06:1,2011-03-08T16:00:00Z,28.8667,-90.4833,1014.68,11111222 
WAVCIS,ioos:station:WAVCIS:CSI06:1,2011-03-08T17:00:00Z,28.8667,-90.4833,1014.62,11111222 
WAVCIS,ioos:station:WAVCIS:CSI06:1,2011-03-08T18:00:00Z,28.8667,-90.4833,1013.69,11111222 
WAVCIS,ioos:station:WAVCIS:CSI06:1,2011-03-08T19:00:00Z,28.8667,-90.4833,1012.74,11111222 
WAVCIS,ioos:station:WAVCIS:CSI06:1,2011-03-08T20:00:00Z,28.8667,-90.4833,1011.97,11111222 
WAVCIS,ioos:station:WAVCIS:CSI06:1,2011-03-08T21:00:00Z,28.8667,-90.4833,1011.47,11111222 
WAVCIS,ioos:station:WAVCIS:CSI06:1,2011-03-08T22:00:00Z,28.8667,-90.4833,1011.23,11111222 
WAVCIS,ioos:station:WAVCIS:CSI06:1,2011-03-08T23:00:00Z,28.8667,-90.4833,1011.44,11111222 
WAVCIS,ioos:station:WAVCIS:CSI06:1,2011-03-09T00:00:00Z,28.8667,-90.4833,1011.34,11111222 
WAVCIS,ioos:station:WAVCIS:CSI06:1,2011-03-09T01:00:00Z,28.8667,-90.4833,1011.83,11111222 
WAVCIS,ioos:station:WAVCIS:CSI06:1,2011-03-09T02:00:00Z,28.8667,-90.4833,1011.65,11111222 
WAVCIS,ioos:station:WAVCIS:CSI06:1,2011-03-09T03:00:00Z,28.8667,-90.4833,1011.99,11111222 
WAVCIS,ioos:station:WAVCIS:CSI06:1,2011-03-09T04:00:00Z,28.8667,-90.4833,1012.67,11111222 
WAVCIS,ioos:station:WAVCIS:CSI06:1,2011-03-09T05:00:00Z,28.8667,-90.4833,1011.52,11111222 
WAVCIS,ioos:station:WAVCIS:CSI06:1,2011-03-09T06:00:00Z,28.8667,-90.4833,1011.38,11111222 
WAVCIS,ioos:station:WAVCIS:CSI06:1,2011-03-09T07:00:00Z,28.8667,-90.4833,1010.65,11111222 
WAVCIS,ioos:station:WAVCIS:CSI06:1,2011-03-09T08:00:00Z,28.8667,-90.4833,1010.63,11111222 
WAVCIS,ioos:station:WAVCIS:CSI06:1,2011-03-09T09:00:00Z,28.8667,-90.4833,1010.61,11111222 
WAVCIS,ioos:station:WAVCIS:CSI06:1,2011-03-09T10:00:00Z,28.8667,-90.4833,1010.96,11111222 
WAVCIS,ioos:station:WAVCIS:CSI06:1,2011-03-09T11:00:00Z,28.8667,-90.4833,1010.76,11111222 
WAVCIS,ioos:station:WAVCIS:CSI06:1,2011-03-09T12:00:00Z,28.8667,-90.4833,1010.58,11111222 
WAVCIS,ioos:station:WAVCIS:CSI06:1,2011-03-09T13:00:00Z,28.8667,-90.4833,1011.34,11111222 
WAVCIS,ioos:station:WAVCIS:CSI06:1,2011-03-09T14:00:00Z,28.8667,-90.4833,1013.09,11111222 
WAVCIS,ioos:station:WAVCIS:CSI06:1,2011-03-09T15:00:00Z,28.8667,-90.4833,1013.4,11111222 
WAVCIS,ioos:station:WAVCIS:CSI06:1,2011-03-09T16:00:00Z,28.8667,-90.4833,1014.5,11111222 
WAVCIS,ioos:station:WAVCIS:CSI06:1,2011-03-09T17:00:00Z,28.8667,-90.4833,1014.29,11111222 
WAVCIS,ioos:station:WAVCIS:CSI06:1,2011-03-09T18:00:00Z,28.8667,-90.4833,1013.99,11111222 
WAVCIS,ioos:station:WAVCIS:CSI06:1,2011-03-09T19:00:00Z,28.8667,-90.4833,1013.64,11111222 
WAVCIS,ioos:station:WAVCIS:CSI06:1,2011-03-09T20:00:00Z,28.8667,-90.4833,1013.59,11111222 
WAVCIS,ioos:station:WAVCIS:CSI06:1,2011-03-09T21:00:00Z,28.8667,-90.4833,1013.57,11111222 
WAVCIS,ioos:station:WAVCIS:CSI06:1,2011-03-09T22:00:00Z,28.8667,-90.4833,1013.51,11111222 
WAVCIS,ioos:station:WAVCIS:CSI06:1,2011-03-09T23:00:00Z,28.8667,-90.4833,1013.59,11111222 
WAVCIS,ioos:station:WAVCIS:CSI06:1,2011-03-10T00:00:00Z,28.8667,-90.4833,1014.66,11111222 
WAVCIS,ioos:station:WAVCIS:CSI06:1,2011-03-10T01:00:00Z,28.8667,-90.4833,1015.41,11111222 
WAVCIS,ioos:station:WAVCIS:CSI06:1,2011-03-10T02:00:00Z,28.8667,-90.4833,1016.4,11111222 
WAVCIS,ioos:station:WAVCIS:CSI06:1,2011-03-10T03:00:00Z,28.8667,-90.4833,1017.49,11111222 
WAVCIS,ioos:station:WAVCIS:CSI06:1,2011-03-10T04:00:00Z,28.8667,-90.4833,1018.34,11111222 
WAVCIS,ioos:station:WAVCIS:CSI06:1,2011-03-10T05:00:00Z,28.8667,-90.4833,1019.17,11111222 
WAVCIS,ioos:station:WAVCIS:CSI06:1,2011-03-10T06:00:00Z,28.8667,-90.4833,1019.8,11111222 
WAVCIS,ioos:station:WAVCIS:CSI06:1,2011-03-10T07:00:00Z,28.8667,-90.4833,1020.29,11111222 
WAVCIS,ioos:station:WAVCIS:CSI06:1,2011-03-10T08:00:00Z,28.8667,-90.4833,1020.56,11111222 
WAVCIS,ioos:station:WAVCIS:CSI06:1,2011-03-10T09:00:00Z,28.8667,-90.4833,1020.89,11111222 
WAVCIS,ioos:station:WAVCIS:CSI06:1,2011-03-10T10:00:00Z,28.8667,-90.4833,1021.22,11111222 
WAVCIS,ioos:station:WAVCIS:CSI06:1,2011-03-10T11:00:00Z,28.8667,-90.4833,1022.13,11111222 
WAVCIS,ioos:station:WAVCIS:CSI06:1,2011-03-10T12:00:00Z,28.8667,-90.4833,1023.05,11111222 
WAVCIS,ioos:station:WAVCIS:CSI06:1,2011-03-10T13:00:00Z,28.8667,-90.4833,1024.14,11111222 
WAVCIS,ioos:station:WAVCIS:CSI06:1,2011-03-10T14:00:00Z,28.8667,-90.4833,1024.93,11111222 
WAVCIS,ioos:station:WAVCIS:CSI06:1,2011-03-10T15:00:00Z,28.8667,-90.4833,1025.13,11111222 
WAVCIS,ioos:station:WAVCIS:CSI06:1,2011-03-10T16:00:00Z,28.8667,-90.4833,1025.54,11111222 
WAVCIS,ioos:station:WAVCIS:CSI06:1,2011-03-10T17:00:00Z,28.8667,-90.4833,1025.57,11111222 
WAVCIS,ioos:station:WAVCIS:CSI06:1,2011-03-10T18:00:00Z,28.8667,-90.4833,1025.49,11111222 
WAVCIS,ioos:station:WAVCIS:CSI06:1,2011-03-10T19:00:00Z,28.8667,-90.4833,1024.74,11111222 
WAVCIS,ioos:station:WAVCIS:CSI06:1,2011-03-10T20:00:00Z,28.8667,-90.4833,1024.19,11111222 
WAVCIS,ioos:station:WAVCIS:CSI06:1,2011-03-10T21:00:00Z,28.8667,-90.4833,1023.65,11111222 
WAVCIS,ioos:station:WAVCIS:CSI06:1,2011-03-10T22:00:00Z,28.8667,-90.4833,1023.05,11111222 
WAVCIS,ioos:station:WAVCIS:CSI06:1,2011-03-10T23:00:00Z,28.8667,-90.4833,1022.81,11111222 
WAVCIS,ioos:station:WAVCIS:CSI06:1,2011-03-11T00:00:00Z,28.8667,-90.4833,1022.84,11111222 
WAVCIS,ioos:station:WAVCIS:CSI06:1,2011-03-11T01:00:00Z,28.8667,-90.4833,1023.24,11111222 
WAVCIS,ioos:station:WAVCIS:CSI06:1,2011-03-11T02:00:00Z,28.8667,-90.4833,1024.23,11111222 
WAVCIS,ioos:station:WAVCIS:CSI06:1,2011-03-11T03:00:00Z,28.8667,-90.4833,1025.06,11111222 
WAVCIS,ioos:station:WAVCIS:CSI06:1,2011-03-11T04:00:00Z,28.8667,-90.4833,1025.24,11111222 
WAVCIS,ioos:station:WAVCIS:CSI06:1,2011-03-11T05:00:00Z,28.8667,-90.4833,1025.1,11111222 
WAVCIS,ioos:station:WAVCIS:CSI06:1,2011-03-11T06:00:00Z,28.8667,-90.4833,1024.78,11111222 
WAVCIS,ioos:station:WAVCIS:CSI06:1,2011-03-11T07:00:00Z,28.8667,-90.4833,1024.76,11111222 
WAVCIS,ioos:station:WAVCIS:CSI06:1,2011-03-11T08:00:00Z,28.8667,-90.4833,1024.97,11111222 
WAVCIS,ioos:station:WAVCIS:CSI06:1,2011-03-11T09:00:00Z,28.8667,-90.4833,1025.02,11111222 
WAVCIS,ioos:station:WAVCIS:CSI06:1,2011-03-11T10:00:00Z,28.8667,-90.4833,1024.86,11111222 
WAVCIS,ioos:station:WAVCIS:CSI06:1,2011-03-11T11:00:00Z,28.8667,-90.4833,1024.84,11111222 
WAVCIS,ioos:station:WAVCIS:CSI06:1,2011-03-11T12:00:00Z,28.8667,-90.4833,1025.17,11111222 
WAVCIS,ioos:station:WAVCIS:CSI06:1,2011-03-11T13:00:00Z,28.8667,-90.4833,1025.94,11111222 
WAVCIS,ioos:station:WAVCIS:CSI06:1,2011-03-11T14:00:00Z,28.8667,-90.4833,1026.46,11111222 
WAVCIS,ioos:station:WAVCIS:CSI06:1,2011-03-11T15:00:00Z,28.8667,-90.4833,1026.73,11111222 
WAVCIS,ioos:station:WAVCIS:CSI06:1,2011-03-11T16:00:00Z,28.8667,-90.4833,1026.71,11111222 
WAVCIS,ioos:station:WAVCIS:CSI06:1,2011-03-11T17:00:00Z,28.8667,-90.4833,1026.41,11111222 
WAVCIS,ioos:station:WAVCIS:CSI06:1,2011-03-11T18:00:00Z,28.8667,-90.4833,1025.99,11111222 
WAVCIS,ioos:station:WAVCIS:CSI06:1,2011-03-11T19:00:00Z,28.8667,-90.4833,1025.14,11111222 
WAVCIS,ioos:station:WAVCIS:CSI06:1,2011-03-11T20:00:00Z,28.8667,-90.4833,1024.52,11111222 
WAVCIS,ioos:station:WAVCIS:CSI06:1,2011-03-11T21:00:00Z,28.8667,-90.4833,1024.24,11111222 
WAVCIS,ioos:station:WAVCIS:CSI06:1,2011-03-11T22:00:00Z,28.8667,-90.4833,1024.07,11111222 